Wetbulb
59.82 57.06 54.62 55.32 56.97 55.34 54.17 53.20 52.55 54.86 58.04 57.19 57.00 57.47 59.69 62.75 66.19 65.36 65.23 65.73 66.26 66.82 67.75 68.77 68.59 68.85 68.59 69.09 68.28 68.71 68.58 69.27 68.21 67.21 66.42 65.68 64.65 66.81 66.75 65.49 66.75 65.80 64.91 64.02
57.23 54.32 57.00 57.38 56.39 54.55 53.85 52.73 52.32 54.94 56.93 57.98 56.95 56.48 59.71 61.27 62.38 64.22 65.24 65.78 66.20 66.59 66.58 66.89 67.53 67.79 67.88 67.82 68.38 68.42 68.88 69.47 69.15 68.12 67.86 67.66 66.63 64.61 63.13 63.56 63.97 64.37 63.80 62.86
53.84 55.83 57.17 56.55 55.62 54.14 53.67 52.68 52.30 52.22 54.77 58.09 56.58 54.89 58.26 59.02 63.82 64.29 65.35 66.37 67.03 66.54 66.02 65.47 65.96 66.82 67.06 64.65 67.84 68.66 69.49 69.77 69.80 69.52 68.82 67.74 67.16 65.51 63.40 62.95 61.56 62.82 62.92 62.62
56.65 57.75 56.21 55.28 54.51 54.96 51.64 55.17 54.03 52.96 52.38 48.95 57.23 49.41 56.01 58.55 60.31 60.33 63.93 65.14 65.98 66.95 66.67 65.86 65.18 66.73 66.06 66.53 67.91 69.34 70.45 70.41 69.90 70.14 68.08 66.37 62.42 59.48 60.03 61.24 61.18 62.87 63.43 62.84
54.57 55.63 54.74 54.12 54.29 56.26 53.69 56.13 54.23 53.99 52.53 53.09 52.07 49.51 48.29 52.58 56.73 58.06 61.50 62.36 64.45 66.29 66.22 65.89 62.93 65.56 67.86 65.94 62.95 66.16 67.14 66.72 68.78 68.92 67.42 62.05 64.84 61.12 60.27 60.50 65.17 67.07 65.84 61.94
55.51 58.39 56.77 55.99 56.75 55.79 56.37 54.66 54.60 54.51 51.87 44.78 51.36 49.78 48.73 54.87 56.34 57.48 58.95 60.73 63.02 64.72 67.09 66.58 65.44 66.53 67.94 66.43 62.55 67.27 67.50 68.59 67.81 65.69 64.70 66.14 64.87 63.97 62.03 62.72 60.90 60.11 61.86 61.05
53.66 53.78 56.58 57.52 54.04 55.78 54.87 52.49 45.05 45.69 45.69 46.10 52.79 49.79 52.54 56.27 57.21 57.49 58.05 59.57 63.03 65.41 66.48 65.84 64.47 67.39 67.32 67.35 66.30 66.43 66.42 65.53 63.65 62.78 62.96 64.63 65.08 65.39 64.06 64.07 60.67 61.96 59.77 59.56
49.38 48.92 54.40 56.09 54.85 53.24 53.51 52.47 48.32 42.08 40.31 45.32 51.10 47.02 50.71 57.19 59.01 59.72 60.42 60.87 62.21 63.42 64.45 64.88 65.64 65.80 65.81 63.68 63.74 63.12 62.72 61.76 62.25 62.82 64.09 64.40 64.96 62.69 61.98 62.74 62.00 61.38 59.86 59.48
50.03 50.96 55.58 56.97 57.73 56.06 53.16 49.56 54.71 51.22 50.89 46.92 49.65 51.68 53.68 57.56 57.23 58.58 59.48 60.61 61.03 62.32 63.21 63.83 64.05 64.57 62.39 62.63 60.11 61.30 60.71 56.99 58.74 58.05 63.08 63.49 63.63 63.20 61.86 62.22 61.79 60.00 61.33 59.33
55.49 50.03 54.26 55.62 58.88 57.09 55.34 57.26 50.64 50.78 43.38 41.98 47.52 48.23 49.64 53.08 55.30 57.47 57.98 58.82 60.28 61.61 61.93 63.07 63.51 61.78 62.08 61.83 61.04 60.70 60.18 58.72 58.49 61.41 61.56 61.56 61.47 61.61 60.96 59.90 59.19 59.38 59.32 58.93
57.51 54.65 53.15 55.28 53.86 52.08 52.96 52.90 50.23 51.56 50.85 43.97 42.88 42.63 55.41 54.97 56.88 57.12 58.24 59.68 60.67 60.99 61.03 59.37 59.51 61.92 60.88 59.99 59.65 59.68 59.64 60.22 60.43 60.61 60.94 60.84 59.89 59.13 58.57 57.65 57.51 57.31 58.36 57.53
58.87 57.03 51.45 51.93 55.52 57.93 56.32 54.29 54.87 48.75 47.34 47.78 49.35 47.81 56.14 57.21 57.82 58.14 57.84 59.80 61.33 61.92 61.79 60.22 60.12 59.02 59.30 57.74 58.58 58.35 59.83 59.68 60.12 60.21 59.27 58.13 57.88 57.61 56.99 56.29 56.30 56.53 55.69 56.24
60.08 55.52 50.14 50.42 51.92 53.44 50.58 53.17 54.81 54.96 54.21 49.44 43.72 47.90 57.29 57.15 56.85 57.55 56.92 57.95 59.21 59.55 59.05 58.80 58.76 58.35 57.50 58.61 58.83 59.07 59.67 59.02 58.28 57.57 56.57 56.14 55.98 55.77 55.29 55.36 55.45 55.95 55.84 55.27
60.75 57.65 53.86 48.73 50.98 54.41 52.22 53.09 54.07 52.77 49.49 49.05 49.49 47.12 53.39 54.21 54.58 55.83 56.50 57.14 57.39 57.43 57.26 58.06 58.25 58.01 58.16 59.02 58.92 58.45 57.63 57.18 56.67 55.59 54.87 54.55 54.85 55.05 54.70 52.97 52.32 52.76 53.43 53.64
58.07 54.01 53.99 54.23 54.32 53.63 52.99 52.18 52.11 51.54 51.78 49.32 50.52 51.06 52.74 53.51 53.28 54.56 55.88 56.36 56.35 56.12 55.88 56.54 56.52 56.85 57.12 57.70 57.80 56.61 56.21 55.97 55.72 54.70 54.07 54.14 54.68 54.46 53.61 53.55 53.26 52.70 53.18 52.12
61.16 54.41 55.30 53.28 54.19 54.07 51.43 52.45 52.23 52.43 52.31 52.30 51.24 51.36 54.57 54.87 54.29 53.31 53.42 53.68 53.79 54.39 54.61 55.35 55.72 56.03 56.18 55.95 55.84 55.57 55.10 55.01 55.21 54.08 53.38 54.11 54.32 53.32 52.74 52.80 52.53 52.71 52.50 51.94
58.88 55.85 53.02 48.82 53.48 53.50 48.84 51.40 52.53 52.80 53.34 52.25 49.22 52.83 54.35 52.41 52.06 52.31 52.75 53.28 53.14 53.79 54.09 54.38 55.14 55.91 56.26 55.64 55.50 54.78 54.42 55.07 54.35 53.87 54.05 53.83 52.71 52.21 52.64 52.69 52.11 51.65 52.14 53.00
58.23 56.45 55.05 49.64 52.07 43.57 52.67 57.24 55.73 53.05 53.71 54.31 53.65 53.49 52.83 52.34 52.78 53.99 54.77 53.52 53.52 54.34 54.87 55.81 55.67 55.44 55.83 55.97 55.61 55.27 54.94 54.53 54.24 54.23 53.74 53.66 53.02 51.44 52.30 51.24 51.21 52.20 53.44 53.01
61.21 57.63 52.54 47.65 47.37 50.65 53.43 54.53 54.04 52.73 51.02 55.41 54.08 53.74 52.50 52.97 53.59 54.44 55.75 55.27 54.90 55.58 56.18 56.20 55.95 55.51 55.99 55.60 55.58 54.98 54.69 54.81 54.64 53.99 53.80 53.64 52.97 51.50 51.37 49.98 50.51 51.74 51.54 52.35
59.65 60.07 54.91 50.82 45.32 43.11 53.00 57.03 58.36 57.09 49.96 55.74 54.54 52.22 51.70 52.41 48.74 52.16 55.41 55.70 55.70 56.45 56.49 55.92 56.17 55.86 55.77 56.27 56.18 55.01 54.36 54.43 54.41 54.16 54.02 54.73 53.01 51.84 50.68 50.69 50.31 51.47 52.77 52.87
54.79 52.90 50.87 49.15 46.69 51.38 57.18 57.16 58.16 47.99 50.80 55.53 54.12 53.37 52.89 51.64 53.37 55.31 55.66 54.92 55.71 56.05 55.85 56.41 56.04 55.28 55.81 56.61 56.37 55.09 54.93 54.41 55.24 55.11 54.59 54.20 53.04 53.13 52.04 51.92 52.09 52.09 53.09 53.63
51.94 50.15 50.20 48.22 48.37 44.68 57.90 56.49 51.72 56.25 57.65 55.71 55.26 54.61 53.70 54.47 54.84 54.64 54.11 54.65 55.03 55.12 55.47 55.68 55.33 55.46 56.40 56.57 55.97 54.96 54.83 56.41 56.24 55.32 54.38 53.40 53.25 53.23 51.56 52.07 51.94 52.25 53.49 53.07
52.91 56.60 54.15 53.13 53.40 59.28 59.32 58.19 59.37 57.43 56.78 56.36 55.63 55.70 55.23 54.75 54.51 53.81 54.31 55.23 55.77 56.25 56.22 56.05 55.30 55.08 56.02 56.36 56.32 55.02 55.99 56.69 56.06 54.94 54.43 54.03 54.15 53.33 52.61 52.24 52.04 50.16 51.87 50.54
58.15 58.84 56.04 54.53 57.25 57.59 58.16 58.04 57.56 57.73 57.22 57.23 56.62 55.64 55.71 54.21 54.17 53.93 55.21 56.06 56.46 56.88 56.80 57.22 56.19 55.18 54.61 55.80 56.05 56.26 56.78 56.69 55.75 54.28 54.65 54.83 54.23 52.73 53.03 52.72 52.71 51.29 50.23 50.71
57.04 57.35 54.09 54.42 56.21 56.25 56.27 57.02 56.37 55.98 56.64 56.13 56.31 55.58 54.30 54.38 54.61 55.31 55.81 56.35 56.74 57.11 57.32 57.66 56.78 56.26 55.82 56.15 56.09 56.48 56.32 56.76 55.20 54.55 54.61 54.20 53.35 53.51 52.60 53.49 52.92 51.93 52.74 48.81
57.44 56.81 53.91 50.60 56.75 56.12 56.16 56.57 55.89 54.66 54.85 55.81 55.71 55.36 56.38 56.46 55.58 56.21 56.22 57.20 57.42 57.22 57.84 57.49 57.78 57.44 56.55 55.86 55.19 55.69 56.47 56.32 55.40 54.21 54.02 53.76 52.57 52.65 52.60 52.04 52.63 44.70 44.22 41.94
MSLP
1005.89 1005.28 1004.47 1005.40 1005.41 1004.35 1003.99 1003.71 1003.22 1002.80 1003.04 1003.84 1003.89 1003.60 1003.38 1003.80 1005.06 1005.80 1006.25 1006.50 1006.95 1007.62 1008.56 1009.89 1011.07 1011.90 1012.65 1013.32 1014.01 1014.61 1015.14 1015.45 1015.96 1016.17 1016.06 1015.68 1015.48 1015.41 1015.60 1015.49 1015.91 1016.29 1016.61 1016.80
1005.35 1004.81 1004.39 1004.47 1004.57 1004.49 1004.27 1003.65 1003.20 1003.74 1002.78 1003.78 1003.60 1003.23 1003.01 1003.00 1003.25 1004.20 1005.30 1006.21 1006.72 1007.28 1008.24 1009.38 1010.64 1011.74 1012.42 1013.24 1014.21 1014.78 1015.33 1015.54 1015.62 1015.72 1016.12 1015.95 1015.84 1015.63 1015.67 1015.76 1016.15 1016.48 1016.75 1017.01
1006.70 1005.73 1006.19 1005.70 1004.63 1004.07 1003.77 1003.97 1003.63 1003.40 1003.16 1003.34 1003.35 1005.54 1002.93 1002.91 1003.55 1004.26 1005.09 1005.82 1006.18 1006.96 1007.73 1009.00 1010.27 1011.37 1012.32 1013.25 1013.54 1014.71 1014.43 1015.11 1015.09 1015.49 1015.63 1015.91 1015.77 1015.55 1015.29 1015.14 1015.45 1015.97 1016.34 1016.68
1005.96 1005.28 1004.42 1004.77 1004.46 1004.17 1003.52 1003.45 1003.67 1003.56 1003.33 1003.44 1004.03 1003.75 1004.18 1003.37 1003.55 1005.65 1003.14 1005.76 1006.18 1006.47 1007.54 1008.83 1010.01 1010.82 1012.02 1012.75 1013.64 1013.85 1014.00 1014.51 1014.62 1015.67 1015.43 1015.48 1015.63 1015.43 1015.17 1015.49 1015.35 1015.77 1016.03 1016.05
1004.11 1004.41 1004.37 1004.60 1004.70 1004.31 1003.45 1003.58 1003.88 1003.98 1004.03 1005.04 1005.56 1005.90 1006.43 1007.43 1005.34 1005.09 1004.84 1005.39 1005.26 1006.12 1007.18 1008.83 1010.26 1010.52 1009.74 1011.43 1013.48 1014.80 1014.73 1012.99 1015.06 1015.54 1015.61 1015.26 1015.29 1015.02 1014.89 1015.08 1015.21 1015.26 1015.36 1015.86
1003.63 1003.86 1004.03 1004.30 1004.26 1004.06 1004.11 1003.84 1004.00 1003.91 1005.39 1007.30 1007.00 1007.33 1006.03 1004.72 1004.92 1004.77 1005.01 1005.23 1005.96 1006.14 1007.24 1008.72 1009.80 1010.65 1011.77 1011.69 1013.59 1014.67 1014.63 1014.59 1015.08 1014.93 1015.09 1015.74 1015.58 1015.64 1015.44 1015.42 1015.65 1015.32 1015.03 1014.91
1003.51 1003.39 1003.12 1003.14 1003.31 1003.39 1003.57 1005.03 1006.32 1005.64 1005.57 1005.07 1006.13 1006.86 1006.26 1005.50 1005.54 1005.39 1005.78 1006.03 1006.56 1007.15 1007.60 1008.93 1009.84 1010.21 1011.05 1011.48 1012.69 1012.44 1013.92 1014.26 1014.77 1014.69 1014.68 1015.13 1015.13 1015.40 1015.66 1015.45 1015.15 1014.95 1014.58 1014.78
1003.05 1003.29 1003.19 1003.57 1004.05 1002.97 1003.50 1005.42 1006.12 1005.02 1006.74 1005.61 1004.90 1006.33 1006.58 1006.19 1005.76 1006.04 1006.16 1006.84 1007.06 1007.71 1008.23 1008.83 1009.64 1010.30 1010.99 1012.16 1013.57 1013.19 1014.16 1014.47 1015.47 1014.26 1014.37 1015.05 1015.45 1015.42 1015.25 1015.20 1015.23 1015.07 1014.93 1014.79
1004.35 1002.98 1003.15 1003.56 1002.69 1002.81 1003.16 1004.86 1005.83 1004.34 1004.58 1004.85 1005.32 1006.73 1007.37 1006.82 1006.58 1006.18 1006.16 1007.18 1008.51 1007.82 1008.23 1008.95 1010.17 1010.58 1012.23 1013.46 1014.44 1015.37 1014.91 1015.60 1015.62 1015.40 1014.76 1014.94 1015.32 1015.43 1015.59 1015.74 1015.74 1015.39 1015.18 1014.97
1003.96 1003.23 1003.42 1003.59 1003.60 1002.98 1003.23 1004.01 1004.12 1004.18 1004.74 1005.04 1005.23 1006.06 1006.52 1007.00 1006.99 1006.90 1006.79 1007.26 1008.15 1009.38 1008.79 1009.47 1010.34 1012.34 1013.14 1014.02 1014.42 1014.86 1014.92 1015.55 1015.31 1014.76 1014.96 1015.03 1015.36 1015.32 1015.63 1015.73 1015.66 1015.51 1015.30 1015.13
1004.84 1004.54 1003.94 1004.81 1004.14 1004.20 1005.06 1004.60 1006.29 1007.72 1006.14 1006.52 1006.86 1008.61 1007.83 1008.04 1007.74 1007.80 1007.51 1007.67 1008.08 1008.62 1009.77 1011.15 1012.20 1013.12 1013.47 1014.33 1014.43 1014.34 1014.32 1014.36 1014.35 1014.75 1015.24 1015.36 1015.40 1015.56 1015.63 1015.62 1015.50 1015.40 1015.18 1014.93
1005.37 1005.20 1004.53 1004.60 1005.51 1006.51 1004.52 1004.60 1005.14 1005.72 1006.15 1007.38 1006.75 1007.52 1008.60 1008.77 1008.51 1008.79 1008.56 1008.80 1009.46 1009.68 1010.26 1011.42 1012.48 1013.32 1013.87 1014.00 1013.84 1013.89 1014.54 1014.65 1014.64 1014.85 1015.36 1015.50 1015.53 1015.62 1015.64 1015.71 1015.60 1015.32 1014.90 1014.44
1006.62 1005.56 1004.89 1004.40 1006.72 1008.39 1007.92 1005.99 1005.43 1005.86 1006.61 1006.67 1008.19 1008.70 1008.82 1009.23 1009.23 1009.34 1009.68 1009.90 1010.72 1011.08 1011.69 1012.25 1012.94 1013.49 1013.85 1013.81 1014.14 1014.35 1014.73 1014.96 1015.12 1015.51 1015.62 1015.62 1015.82 1016.00 1015.99 1015.76 1015.46 1015.07 1014.60 1014.15
1007.73 1006.62 1005.79 1005.04 1004.91 1005.49 1005.80 1005.13 1005.16 1005.74 1006.27 1006.47 1007.83 1009.54 1009.04 1009.46 1009.61 1010.01 1010.44 1010.77 1011.18 1011.89 1012.51 1012.90 1012.91 1012.65 1013.28 1014.12 1014.55 1014.93 1015.29 1015.44 1015.65 1015.94 1015.92 1015.94 1016.15 1016.01 1016.07 1016.15 1015.91 1015.53 1014.99 1014.42
1007.54 1006.95 1006.16 1005.53 1005.16 1005.28 1005.24 1005.30 1005.61 1005.64 1006.28 1006.85 1007.49 1007.77 1009.18 1009.97 1010.26 1010.60 1010.85 1011.03 1011.51 1012.18 1012.55 1012.37 1012.90 1013.31 1013.57 1014.09 1014.82 1015.13 1015.54 1015.78 1016.05 1016.07 1016.05 1016.04 1015.84 1015.93 1016.06 1015.86 1015.75 1015.20 1014.72 1014.00
1006.79 1006.75 1006.25 1005.40 1004.91 1005.52 1005.23 1005.63 1006.16 1006.28 1006.84 1007.18 1007.76 1008.46 1009.74 1010.22 1010.73 1011.14 1011.34 1011.56 1011.75 1012.16 1012.68 1013.00 1013.31 1013.63 1014.13 1014.64 1015.15 1015.58 1015.82 1016.03 1016.17 1016.18 1015.99 1015.61 1015.25 1015.71 1015.71 1015.58 1015.17 1014.42 1014.17 1013.71
1006.63 1006.58 1006.33 1005.42 1006.01 1005.50 1005.30 1006.12 1006.21 1006.50 1007.42 1008.35 1008.24 1009.29 1010.14 1010.36 1011.02 1011.45 1011.74 1011.89 1012.20 1012.60 1013.17 1013.42 1013.79 1014.15 1014.74 1015.17 1015.52 1015.86 1016.07 1016.06 1016.06 1015.90 1015.43 1015.04 1015.45 1015.34 1015.27 1014.90 1014.40 1014.23 1013.86 1013.44
1006.57 1006.82 1006.41 1005.75 1005.44 1005.49 1006.66 1006.71 1007.04 1007.29 1008.10 1008.79 1009.19 1009.92 1010.25 1010.91 1011.09 1011.45 1011.96 1012.27 1012.53 1012.85 1013.30 1013.65 1014.04 1014.53 1015.04 1015.37 1015.59 1016.00 1016.05 1015.86 1015.58 1015.26 1014.92 1014.76 1014.94 1015.25 1015.30 1015.07 1014.51 1014.02 1013.69 1013.09
1007.01 1006.70 1006.38 1006.25 1005.27 1006.45 1006.66 1007.40 1007.40 1007.44 1008.41 1009.13 1009.47 1009.99 1010.37 1011.01 1011.09 1011.01 1012.30 1012.71 1013.08 1013.41 1013.79 1014.12 1014.49 1014.79 1015.19 1015.46 1015.65 1015.82 1015.72 1015.39 1015.04 1014.64 1014.46 1014.57 1014.87 1015.42 1015.17 1014.71 1014.43 1013.99 1013.34 1012.70
1007.01 1006.75 1006.41 1006.06 1006.81 1005.95 1006.94 1007.76 1008.21 1008.22 1008.27 1009.44 1010.02 1010.25 1010.67 1011.12 1010.63 1011.47 1012.51 1012.76 1013.15 1013.60 1013.92 1014.38 1014.79 1014.91 1015.08 1015.33 1015.52 1015.64 1015.40 1015.01 1014.51 1014.38 1014.30 1014.32 1015.20 1015.20 1014.64 1014.55 1014.20 1013.60 1013.27 1012.49
1006.93 1006.90 1006.41 1006.10 1007.27 1006.66 1007.58 1008.09 1008.38 1008.67 1009.92 1010.27 1010.40 1010.53 1011.00 1011.32 1011.81 1012.44 1012.79 1012.99 1013.46 1013.88 1014.21 1014.52 1014.80 1014.68 1014.93 1015.14 1015.25 1015.20 1015.03 1014.67 1014.48 1014.28 1014.20 1014.71 1015.01 1014.66 1014.03 1014.07 1013.88 1013.37 1013.14 1012.50
1006.10 1006.46 1006.37 1007.96 1006.55 1007.39 1008.48 1008.43 1008.78 1009.78 1010.11 1010.37 1010.42 1010.69 1011.06 1011.55 1012.04 1012.49 1012.88 1013.22 1013.60 1013.86 1014.00 1014.07 1014.09 1014.25 1014.51 1014.68 1014.76 1014.66 1014.42 1014.29 1014.13 1014.14 1014.07 1014.50 1014.62 1013.90 1013.92 1013.73 1013.41 1013.09 1012.68 1012.36
1006.39 1006.40 1007.09 1007.95 1007.90 1008.89 1009.07 1009.26 1009.78 1010.00 1010.20 1010.21 1010.51 1010.84 1011.41 1011.77 1012.00 1012.35 1012.76 1013.03 1013.29 1013.52 1013.53 1013.58 1013.63 1013.72 1013.94 1013.98 1014.04 1013.96 1013.90 1013.74 1013.62 1013.81 1013.78 1013.87 1013.94 1013.52 1013.59 1013.18 1012.76 1012.62 1012.53 1012.30
1006.20 1007.38 1006.92 1008.03 1008.64 1008.80 1009.24 1009.65 1009.96 1010.17 1010.28 1010.31 1010.71 1011.10 1011.57 1011.84 1011.97 1012.28 1012.54 1012.64 1012.89 1012.85 1012.85 1012.95 1013.11 1013.24 1013.32 1013.47 1013.56 1013.54 1013.43 1013.41 1013.40 1013.55 1013.45 1013.18 1013.04 1013.01 1013.01 1012.58 1011.95 1012.22 1012.37 1012.31
1007.44 1007.49 1007.09 1007.55 1008.43 1009.07 1009.39 1009.79 1010.00 1010.10 1010.37 1010.57 1010.73 1011.18 1011.64 1011.84 1011.98 1012.09 1012.11 1012.24 1012.38 1012.44 1012.44 1012.55 1012.68 1012.77 1012.85 1013.01 1013.03 1012.98 1012.97 1013.08 1013.10 1013.36 1013.14 1012.64 1012.28 1012.38 1012.36 1011.85 1011.83 1012.08 1012.28 1012.95
1006.83 1007.38 1007.48 1008.47 1008.88 1008.95 1009.40 1009.98 1010.24 1010.31 1010.35 1010.57 1010.72 1010.96 1011.26 1011.56 1011.71 1011.77 1011.73 1011.81 1011.90 1011.94 1011.97 1012.03 1012.22 1012.36 1012.40 1012.43 1012.51 1012.52 1012.54 1012.58 1012.72 1012.94 1012.47 1012.26 1012.22 1011.90 1011.60 1011.53 1011.50 1012.13 1012.30 1012.59
Wind_Speed
15 13 14 9 17 13 9 11 13 10 4 4 13 15 12 6 11 8 11 12 12 14 14 16 15 13 14 13 12 11 10 8 7 7 8 9 8 6 5 4 3 7 7 11
15 13 18 1 8 9 10 18 12 13 7 8 15 18 14 14 8 11 11 12 12 12 13 13 13 14 14 12 7 11 10 10 9 8 6 5 6 6 7 6 3 6 4 7
8 23 4 19 18 15 11 15 13 18 13 12 17 16 21 8 7 6 6 9 11 11 14 13 15 15 13 8 13 11 12 13 9 8 4 5 7 8 8 5 3 5 5 5
19 24 17 12 17 13 17 7 16 17 16 14 12 14 21 18 14 24 11 6 8 10 11 10 9 12 12 8 9 4 10 13 9 7 6 3 6 7 6 6 5 3 9 6
16 19 24 19 15 24 16 17 13 17 18 24 11 5 7 27 8 12 7 9 5 7 9 10 8 11 18 11 8 8 5 5 4 7 7 4 8 6 6 7 7 6 8 4
21 19 9 16 22 12 19 15 18 22 5 6 12 2 6 10 12 14 13 11 9 6 8 6 7 5 6 9 10 17 8 8 9 6 6 7 7 8 9 8 8 11 1 9
21 18 20 17 17 15 22 14 12 22 12 6 5 12 9 14 12 12 13 11 7 5 6 10 12 8 5 7 9 14 14 9 4 4 4 10 9 8 8 12 8 9 8 10
14 19 23 13 19 20 2 15 12 10 8 19 11 0 1 8 10 10 8 8 4 3 6 2 3 6 6 11 7 12 10 5 11 4 5 8 9 8 8 5 9 9 10 11
18 25 12 18 18 11 13 4 27 10 16 14 5 8 17 3 7 12 10 7 10 4 5 6 8 5 16 12 11 7 9 3 5 13 6 5 7 8 7 9 9 10 9 9
16 20 17 7 16 12 11 17 12 8 10 15 7 9 6 10 10 12 12 6 8 9 6 5 9 15 10 11 6 5 6 8 10 8 7 7 7 7 6 7 9 11 12 14
12 12 15 4 9 6 3 12 5 12 4 7 9 1 7 9 11 13 14 12 6 4 7 15 11 7 7 5 4 5 5 7 4 7 7 7 9 8 10 12 13 14 13 13
3 6 12 11 28 29 12 11 10 7 9 8 14 5 8 9 11 11 12 13 12 9 11 8 8 7 5 7 5 5 8 6 7 7 10 11 11 12 13 13 14 14 15 14
12 6 9 14 8 12 11 16 8 6 7 10 7 2 6 9 10 11 11 9 8 7 6 7 5 5 4 8 6 6 6 9 10 11 12 12 12 12 12 13 14 14 13 13
4 9 11 13 14 1 8 8 6 4 8 6 1 13 8 10 11 9 8 6 6 4 5 5 5 2 7 2 7 7 8 9 10 11 11 11 11 11 9 10 10 12 12 13
1 13 14 14 6 7 2 4 4 7 4 8 5 7 10 9 9 9 7 6 8 5 4 5 8 7 8 8 7 8 8 9 9 10 10 10 11 9 11 13 11 12 13 13
6 9 10 15 3 8 4 2 4 6 4 9 4 9 5 5 6 7 6 7 3 2 6 7 7 8 9 9 7 7 8 8 8 9 11 11 10 11 10 12 13 16 13 12
7 7 6 12 10 17 6 6 4 3 4 6 7 9 5 7 6 5 5 4 4 6 5 6 7 7 6 7 6 8 8 8 8 9 11 11 12 12 13 15 16 15 15 15
6 8 11 11 10 11 3 3 4 5 4 1 2 3 6 5 5 1 5 6 6 6 6 8 8 8 7 7 6 6 8 8 9 11 12 13 12 11 12 13 14 14 12 13
6 7 8 8 3 9 11 4 2 6 6 4 2 3 5 4 10 6 1 3 5 7 7 6 7 6 5 6 6 6 8 10 11 11 12 13 14 10 11 10 14 14 13 12
12 11 8 5 11 7 7 6 3 4 8 7 1 4 5 7 10 11 5 6 5 7 7 5 7 7 5 6 5 6 9 10 11 13 13 11 9 8 12 11 13 12 13 13
14 5 9 4 7 6 8 3 1 8 4 1 4 4 4 6 6 7 4 5 6 6 6 6 7 7 5 6 7 8 9 11 12 12 13 9 6 13 7 10 9 11 10 10
3 4 2 3 7 1 2 5 4 6 2 3 3 5 4 5 5 3 3 3 3 5 6 7 6 6 6 6 7 9 10 9 10 10 10 5 6 8 9 10 8 9 8 10
3 6 4 3 7 6 2 4 3 3 6 4 3 6 3 7 6 3 4 4 4 5 5 5 6 6 7 7 7 8 9 10 9 10 11 5 9 5 9 8 7 6 7 9
2 3 1 2 6 3 2 2 2 5 7 5 4 3 5 7 5 5 6 5 6 6 7 7 7 7 8 8 8 9 10 10 8 9 10 8 9 4 6 9 6 7 6 8
5 3 4 3 4 4 4 1 5 6 3 5 5 4 4 6 6 7 8 6 8 8 8 7 8 8 9 9 9 9 8 9 7 7 9 9 7 6 7 6 5 5 4 4
5 9 4 5 5 4 6 2 1 5 4 5 7 6 8 8 9 10 10 9 9 10 10 9 9 9 10 9 8 8 8 7 6 7 8 6 6 6 6 5 5 4 3 11
Wind_Direction
201 239 239 105 240 306 324 311 293 299 152 263 280 272 271 211 199 241 250 250 228 221 203 185 194 195 194 200 199 202 204 209 211 224 227 232 242 225 227 303 20 355 324 326
283 227 265 295 289 296 292 279 319 281 267 269 267 270 278 279 258 220 224 230 236 219 214 188 189 195 200 198 181 210 219 209 207 213 236 292 321 319 323 314 311 265 276 309
244 285 132 291 296 275 248 309 308 311 298 249 264 320 265 307 174 206 207 236 223 230 217 190 194 201 204 180 197 216 204 215 203 224 204 227 249 233 232 198 256 98 326 305
214 237 287 220 263 278 280 281 289 295 285 274 189 287 347 312 35 5 179 195 239 233 217 184 187 192 199 194 209 266 213 205 183 199 240 229 316 298 314 301 273 321 271 255
275 218 258 353 313 288 287 295 297 289 283 349 357 22 237 250 134 190 88 11 238 229 179 201 160 224 192 123 105 231 317 21 207 190 266 283 226 291 312 316 316 266 265 211
257 263 220 248 249 266 288 289 272 266 82 250 208 55 279 17 39 30 15 32 7 356 118 169 171 85 221 130 144 225 188 181 207 193 199 248 284 290 297 310 307 280 321 300
252 284 284 264 258 259 253 31 351 288 239 275 86 269 27 37 39 32 22 6 52 21 125 173 147 192 194 190 160 175 175 162 203 222 206 235 256 274 268 261 259 308 291 294
264 240 238 238 297 271 232 156 216 340 332 266 303 331 101 4 58 43 45 8 62 57 116 121 115 153 171 68 16 51 49 36 315 317 344 339 324 298 299 321 340 314 314 304
283 289 343 300 223 268 283 145 230 294 300 320 23 360 55 335 13 17 25 61 357 224 110 121 111 163 81 71 68 51 54 80 327 305 315 296 273 296 313 309 310 290 316 315
276 297 189 250 312 260 264 339 294 277 289 285 338 20 33 24 10 7 359 64 98 283 102 97 91 72 48 67 80 35 1 315 257 260 301 330 311 319 350 329 313 307 312 310
289 279 297 287 259 307 239 231 120 233 348 331 305 137 54 11 21 7 356 20 64 95 64 74 65 66 63 33 323 306 253 300 340 352 329 327 327 322 319 315 315 314 307 299
324 298 256 254 36 1 331 348 347 321 298 196 259 112 88 29 23 22 7 35 24 23 61 86 85 86 330 327 244 6 24 324 340 348 338 328 330 331 325 324 313 309 301 294
359 250 255 235 38 353 265 257 278 249 245 285 14 117 46 42 25 37 15 42 44 47 75 67 61 304 259 7 11 5 359 354 344 350 334 336 339 335 322 312 316 308 309 321
342 291 289 298 344 178 212 228 307 299 280 333 13 173 62 31 26 23 24 21 68 109 58 18 241 276 74 67 15 355 355 349 347 339 335 340 335 317 358 347 332 326 313 303
117 281 290 287 295 282 296 319 310 299 353 305 31 20 37 24 10 8 2 7 33 5 283 12 24 358 349 26 2 352 343 345 342 336 339 335 317 12 335 323 314 299 300 305
184 267 267 270 306 260 317 93 242 239 49 303 319 101 40 53 352 5 13 353 16 25 5 1 0 358 2 354 360 338 346 341 344 338 328 320 334 340 314 309 305 306 306 290
204 277 253 274 163 228 247 103 270 328 152 325 332 27 1 352 2 353 354 19 359 6 346 346 338 2 360 329 348 354 337 343 336 324 313 326 353 319 333 326 327 324 321 312
208 235 263 269 223 279 83 68 21 322 32 149 160 345 5 343 321 283 350 5 348 345 339 352 345 348 350 341 342 341 337 327 320 313 327 342 331 356 339 330 331 329 319 318
265 255 255 244 295 188 189 137 275 321 189 184 327 337 344 323 293 194 161 326 338 339 333 343 329 334 325 315 334 323 316 320 317 328 330 347 356 347 321 329 338 326 325 317
225 234 254 264 258 319 96 113 337 308 257 117 346 320 337 338 290 94 10 1 332 342 335 327 310 317 313 293 313 306 311 314 326 331 336 352 22 327 322 352 329 332 334 330
220 351 232 218 215 91 76 97 7 258 51 102 317 329 316 301 356 335 325 345 358 344 317 303 305 294 306 297 300 298 306 317 329 334 335 37 359 311 351 348 342 330 334 330
7 184 80 184 262 326 88 196 294 57 178 304 295 297 310 314 297 268 309 321 339 326 326 300 293 292 290 295 292 291 301 308 316 333 335 6 328 322 342 336 331 315 326 350
299 24 359 358 36 114 62 28 71 321 295 303 306 317 306 294 281 282 279 291 320 286 290 302 301 303 287 279 278 292 294 304 326 325 327 334 323 344 320 325 339 345 350 349
232 118 263 291 118 143 118 118 299 295 290 302 292 302 299 288 277 259 261 277 287 296 313 315 300 297 301 307 301 288 295 311 317 318 318 320 298 347 318 302 350 356 355 346
71 225 37 222 148 190 163 332 336 312 281 281 273 293 296 275 273 271 274 281 288 295 294 308 309 302 295 290 289 290 290 298 306 309 300 299 336 314 296 302 334 327 16 4
77 20 343 59 83 323 84 351 293 297 287 270 284 272 241 241 262 271 278 284 290 291 295 292 299 297 292 289 294 290 286 287 287 290 291 332 305 318 293 319 316 146 166 173